GFSSE_con_mlcape_021.txt.gz
CAPE
36 612 915 1000 1452 1098 765 700 968 696 688 795 1024 1344 1282 1430 1488 1497 1378 1151 1144 1176 1274 1426 1400 1304 1450 1469 1474 1341 1265 1364 1443 1401 1377 1466 1495 1309 1062 903 885 957 1290
0 167 728 1180 1004 1366 687 600 877 646 637 587 651 745 754 699 840 883 1052 1527 1423 1427 1376 1478 1502 1358 1497 1611 1498 1370 1320 1323 1149 951 801 727 907 1093 993 882 824 1232 1295
33 285 667 1531 871 1364 1138 1483 751 559 123 151 256 262 233 348 423 487 565 993 1227 1507 1447 1437 1511 1477 1351 1553 1438 1418 1429 1251 742 821 1134 911 892 946 753 662 668 974 990
90 376 583 1194 911 863 1278 951 627 280 4 0 0 0 9 28 105 159 250 504 828 1056 1221 1537 1403 1402 1396 1365 1597 1482 1483 792 801 984 1176 936 1013 906 677 643 637 614 947
121 270 935 1211 1027 1432 899 655 363 132 2 4 0 0 0 1 40 137 169 300 563 478 672 1269 1471 1495 1521 1376 1346 1828 1159 824 1079 1098 1040 1145 914 803 818 717 556 536 724
390 309 680 1271 1218 850 549 364 211 143 97 76 30 0 0 0 0 0 5 295 279 64 421 742 817 1035 1351 1512 1470 1608 1012 1002 1171 1184 1258 1227 1153 1066 876 625 703 497 335
404 343 379 1473 1159 675 461 261 134 148 30 74 4 0 0 0 0 0 0 0 1 0 0 196 436 649 846 1337 1726 1192 828 895 959 943 997 946 997 1114 1155 844 527 456 423
259 135 371 1434 1113 775 332 192 292 158 3 0 0 0 0 0 0 0 0 0 0 0 0 0 7 104 396 1043 1405 964 754 929 1039 931 728 782 662 840 965 1004 721 496 577
6 0 8 379 924 525 161 209 329 57 0 0 0 0 0 0 0 0 0 0 0 0 0 0 0 0 4 200 511 619 572 635 690 608 373 564 751 670 838 823 799 790 638
0 0 0 266 671 341 26 48 58 0 0 0 0 0 0 0 0 0 0 0 0 0 0 0 0 0 0 0 0 17 123 324 427 417 94 212 622 782 881 952 751 897 772
0 0 0 13 226 114 0 0 0 0 0 0 0 0 0 0 0 0 0 0 0 0 0 0 0 0 0 0 0 0 0 38 76 58 2 3 250 372 357 412 528 629 769
0 0 0 0 3 40 0 0 0 0 0 0 0 0 0 0 0 0 0 0 0 0 0 0 0 0 0 0 0 0 0 0 0 0 0 0 0 8 20 55 137 183 302
0 0 0 0 0 0 0 0 0 0 0 0 0 0 0 0 0 0 0 0 0 0 0 0 0 0 0 0 0 0 0 0 0 0 0 0 0 0 0 0 0 0 0
0 0 0 0 0 0 0 0 0 0 0 0 0 0 0 0 0 0 0 0 0 0 0 0 0 0 0 0 0 0 0 0 0 0 0 0 0 0 0 0 0 0 0
0 0 0 0 0 0 0 0 0 0 0 0 0 0 0 0 0 0 0 0 0 0 0 0 0 0 0 0 0 0 0 0 0 0 0 0 0 0 0 0 0 0 0
0 0 0 0 0 0 0 0 0 0 0 0 0 0 0 0 0 0 0 0 0 0 0 0 0 0 0 0 0 0 0 0 0 0 0 0 0 0 0 0 0 0 0
0 0 0 0 0 0 0 0 0 0 0 0 0 0 0 0 0 0 0 0 0 0 0 0 0 0 0 0 0 0 0 0 0 0 0 0 0 0 0 0 0 0 0
0 0 0 0 0 0 0 0 0 0 0 0 0 0 0 0 0 0 0 0 0 0 0 0 0 0 0 0 0 0 0 0 0 0 0 0 0 0 0 0 0 0 0
0 0 0 0 0 0 0 0 0 0 0 0 0 0 0 0 0 0 0 0 0 0 0 0 0 0 0 0 0 0 0 0 0 0 0 0 0 0 0 0 0 0 0
0 0 0 0 0 0 0 0 0 0 0 0 0 0 0 0 0 0 0 0 0 0 0 0 0 0 0 0 0 0 0 0 0 0 0 0 0 0 0 0 0 0 0
0 0 0 0 0 0 0 0 0 0 0 0 0 0 0 0 0 0 0 0 0 0 0 0 0 0 0 0 0 0 0 0 0 0 0 0 0 0 0 0 0 0 0
0 0 0 0 0 0 0 0 0 0 0 0 0 0 0 0 0 0 0 0 0 0 0 0 0 0 0 0 0 0 0 0 0 0 0 0 0 0 0 0 0 0 0
0 0 0 0 0 0 0 0 0 0 0 0 0 0 0 0 0 0 0 0 0 0 0 0 0 0 0 0 0 0 0 0 0 0 0 0 0 0 0 0 0 0 0
0 0 0 0 0 0 0 0 0 0 0 0 0 0 0 0 0 0 0 0 0 0 0 0 0 0 0 0 0 0 0 0 0 0 0 0 0 0 0 0 0 0 0
0 0 0 0 0 0 0 0 0 0 0 0 0 0 0 0 0 0 0 0 0 0 0 0 0 0 0 0 0 0 0 0 0 0 0 0 0 0 0 0 0 0 0
0 0 0 0 0 0 0 0 0 0 0 0 0 0 0 0 0 0 0 0 0 0 0 0 0 0 0 0 0 0 0 0 0 0 0 0 0 0 0 0 0 0 0

GFSSE_con_mlcape_024.txt.gz
CAPE
818 644 672 1036 1125 1296 509 977 679 758 656 798 909 1011 936 1156 1150 1256 1446 1148 1115 1195 1351 1245 1318 1462 1557 1657 1469 1464 1317 1458 1370 1317 1337 1377 1387 1278 931 933 1098 1202 920
367 578 757 1327 931 949 424 863 676 686 501 470 581 501 593 616 690 780 1111 1373 1343 1345 1396 1491 1371 1361 1615 1422 1331 1326 1251 1013 1077 818 688 710 980 1158 943 765 1001 1207 921
94 434 858 1161 956 1104 1091 779 634 182 161 217 222 210 303 322 297 365 645 1034 1141 1403 1348 1375 1453 1296 1404 1597 1304 1407 934 770 819 954 908 825 792 848 851 698 788 982 956
181 161 1158 1030 1240 1087 1248 853 435 84 2 0 2 8 9 54 105 155 380 596 693 875 1296 1394 1349 1291 1193 1264 1570 1149 712 893 1032 1028 1069 1010 869 879 796 780 681 981 902
125 556 1060 907 909 1224 960 608 338 19 0 0 0 0 0 13 35 44 148 193 130 643 904 1047 1231 1463 1372 1217 1492 930 1028 1166 1125 1143 1064 1029 839 986 935 832 622 748 710
156 931 997 1048 1331 1080 806 518 189 47 28 4 0 0 0 0 0 0 11 1 0 77 354 510 764 942 1361 1377 1515 900 1012 1080 1070 1086 1124 985 1061 1204 867 676 619 447 397
320 788 737 1303 1340 844 573 329 209 95 128 36 0 0 0 0 0 0 0 1 0 0 7 129 294 563 1188 1543 1262 783 876 944 814 842 836 551 835 1093 1177 786 558 522 440
316 589 687 1362 1009 750 488 205 204 77 0 0 0 0 0 0 0 0 0 0 0 0 0 0 0 140 581 1274 1020 707 767 951 656 536 487 564 614 764 917 1010 746 528 606
222 183 629 1092 912 760 482 292 321 137 0 0 0 0 0 0 0 0 0 0 0 0 0 0 0 0 46 392 478 506 525 545 363 264 223 415 805 797 935 885 870 846 672
17 2 242 682 755 494 212 308 356 88 0 0 0 0 0 0 0 0 0 0 0 0 0 0 0 0 0 0 6 54 105 249 208 12 4 120 489 449 855 915 910 943 846
0 0 0 343 393 330 97 217 211 4 0 0 0 0 0 0 0 0 0 0 0 0 0 0 0 0 0 0 0 0 0 10 42 0 0 0 27 199 364 488 478 562 643
0 0 0 135 327 179 58 1 0 0 0 0 0 0 0 0 0 0 0 0 0 0 0 0 0 0 0 0 0 0 0 0 0 0 0 0 0 3 9 22 61 84 186
0 0 0 0 164 99 18 0 0 0 0 0 0 0 0 0 0 0 0 0 0 0 0 0 0 0 0 0 0 0 0 0 0 0 0 0 0 0 0 0 0 0 0
0 0 0 0 0 14 16 0 0 0 0 0 0 0 0 0 0 0 0 0 0 0 0 0 0 0 0 0 0 0 0 0 0 0 0 0 0 0 0 0 0 0 0
0 0 0 0 0 0 0 0 0 0 0 0 0 0 0 0 0 0 0 0 0 0 0 0 0 0 0 0 0 0 0 0 0 0 0 0 0 0 0 0 0 0 0
0 0 0 0 0 0 0 0 0 0 0 0 0 0 0 0 0 0 0 0 0 0 0 0 0 0 0 0 0 0 0 0 0 0 0 0 0 0 0 0 0 0 0
0 0 0 0 0 0 0 0 0 0 0 0 0 0 0 0 0 0 0 0 0 0 0 0 0 0 0 0 0 0 0 0 0 0 0 0 0 0 0 0 0 0 0
0 0 0 0 2 11 0 0 0 0 0 0 0 0 0 0 0 0 0 0 0 0 0 0 0 0 0 0 0 0 0 0 0 0 0 0 0 0 0 0 0 0 0
0 0 0 0 0 40 11 0 0 0 0 0 0 0 0 0 0 0 0 0 0 0 0 0 0 0 0 0 0 0 0 0 0 0 0 0 0 0 0 0 0 0 0
0 0 0 0 2 9 45 2 0 0 0 0 0 0 0 0 0 0 0 0 0 0 0 0 0 0 0 0 0 0 0 0 0 0 0 0 0 0 0 0 0 0 0
0 0 0 0 0 10 21 0 0 0 0 0 0 0 0 0 0 0 0 0 0 0 0 0 0 0 0 0 0 0 0 0 0 0 0 0 0 0 0 0 0 0 0
0 0 0 0 0 0 18 26 0 0 0 0 0 0 0 0 0 0 0 0 0 0 0 0 0 0 0 0 0 0 0 0 0 0 0 0 0 0 0 0 0 0 0
0 0 0 0 0 0 0 2 6 0 0 0 0 0 0 0 0 0 0 0 0 0 0 0 0 0 0 0 0 0 0 0 0 0 0 0 0 0 0 0 0 0 0
0 0 0 0 0 0 0 0 0 1 0 0 0 0 0 0 0 0 0 0 0 0 0 0 0 0 0 0 0 0 0 0 0 0 0 0 0 0 0 0 0 0 0
0 0 0 0 0 0 0 0 0 0 2 0 0 0 0 0 0 0 0 0 0 0 0 0 0 0 0 0 0 0 0 0 0 0 0 0 0 0 0 0 0 0 0
0 0 0 0 0 0 0 0 0 0 0 1 0 0 0 0 0 0 0 0 0 0 0 0 0 0 0 0 0 0 0 0 0 0 0 0 0 0 0 0 0 0 0

GFSSE_con_mlcape_030.txt.gz
CAPE
338 555 1097 912 657 1244 939 1208 1243 1313 1196 1189 1208 1127 1145 1275 1328 1222 1234 1340 1371 1409 1200 1560 1537 1496 1545 1365 1241 1319 1401 1283 1186 1080 1259 1180 1235 1289 1234 986 700 569 413
313 766 1242 955 869 969 848 1030 929 940 756 831 882 838 757 826 1015 1244 1248 1118 1324 1374 1266 1255 1565 1450 1445 1243 1202 1238 1145 1023 1117 1040 857 902 838 1143 1060 1014 762 553 465
247 684 1308 1235 879 831 918 865 710 553 556 592 650 608 506 411 727 895 980 1192 1139 1217 1305 1198 1338 1310 1409 1113 1065 1140 1109 1039 922 877 749 788 989 1029 948 814 855 705 533
218 762 1109 1291 744 762 800 708 541 429 366 283 257 265 303 232 416 525 436 727 960 851 1075 1171 1058 1230 1349 1013 1245 1246 1118 1216 1033 1043 845 889 1128 1134 1097 1009 869 839 780
279 506 721 1247 978 878 809 599 365 237 221 72 10 4 11 51 121 79 172 356 464 482 680 1115 1163 973 1259 1203 1330 1330 1094 1140 1085 877 775 864 1053 1144 1064 1064 1087 718 677
219 333 696 1326 1336 1335 1020 558 306 78 11 0 0 0 0 0 0 0 1 161 73 138 232 430 771 1006 1326 1057 1259 1508 1329 1111 744 598 583 801 1035 1053 985 901 692 671 692
275 446 867 1061 1183 1137 975 619 287 32 0 0 0 0 0 0 0 0 0 0 2 38 76 75 299 677 1364 961 1061 1082 1103 798 387 339 337 374 611 997 1190 886 824 719 734
402 796 868 1105 1102 1062 955 712 322 176 0 0 0 0 0 0 0 0 0 0 0 0 1 2 231 812 975 820 899 1051 741 425 227 125 235 264 426 800 870 1027 831 755 789
563 756 910 1188 1136 1040 952 686 423 204 55 0 0 0 0 0 0 0 0 0 0 0 0 0 51 340 422 497 559 665 605 166 6 20 36 394 838 957 936 758 963 875 797
779 804 932 1183 1000 810 769 618 460 279 72 0 0 0 0 0 0 0 0 0 0 0 0 0 0 4 102 140 161 65 105 1 0 0 0 72 240 366 747 818 962 962 1006
532 708 879 669 603 523 460 473 493 240 34 0 0 0 0 0 0 0 0 0 0 0 0 0 0 0 0 0 0 0 0 0 0 0 0 0 3 53 341 367 599 573 652
400 580 742 489 338 356 412 450 428 215 29 0 0 0 0 0 0 0 0 0 0 0 0 0 0 0 0 0 0 0 0 0 0 0 0 0 0 3 4 52 152 163 278
169 449 694 484 341 251 204 234 280 129 9 0 0 0 0 0 0 0 0 0 0 0 0 0 0 0 0 0 0 0 0 0 0 0 0 0 0 1 1 0 1 26 131
0 65 406 503 394 291 232 124 110 85 0 0 0 0 0 0 0 0 0 0 0 0 0 0 0 0 0 0 0 0 0 0 0 0 0 0 0 2 1 0 0 0 0
0 0 0 313 318 342 250 190 68 20 0 0 0 0 0 0 0 0 0 0 0 0 0 0 0 0 0 0 0 0 0 0 0 0 0 0 0 0 0 0 0 0 0
0 0 0 40 193 221 207 261 123 15 0 0 0 0 0 0 0 0 0 0 0 0 0 0 0 0 0 0 0 0 0 0 0 0 0 0 0 0 0 0 0 0 0
0 0 0 0 28 158 121 162 96 11 0 0 0 0 0 0 0 0 0 0 0 0 0 0 0 0 0 0 0 0 0 0 0 0 0 0 0 0 0 0 0 0 0
0 0 0 0 0 0 0 0 0 0 0 0 0 0 0 0 0 0 0 0 0 0 0 0 0 0 0 0 0 0 0 0 0 0 0 0 0 0 0 0 0 0 0
0 0 0 0 0 0 0 0 0 0 0 0 0 0 0 0 0 0 0 0 0 0 0 0 0 0 0 0 0 0 0 0 0 0 0 0 0 0 0 0 0 0 0
0 0 0 0 0 0 0 0 0 0 0 0 0 0 0 0 0 0 0 0 0 0 0 0 0 0 0 0 0 0 0 0 0 0 0 0 0 0 0 0 0 0 0
0 0 0 0 0 0 0 0 0 0 0 0 0 0 0 0 0 0 0 0 0 0 0 0 0 0 0 0 0 0 0 0 0 0 0 0 0 0 0 0 0 0 0
0 0 0 0 0 0 0 0 0 0 0 0 0 0 0 0 0 0 0 0 0 0 0 0 0 0 0 0 0 0 0 0 0 0 0 0 0 0 0 0 0 0 0
0 0 0 0 0 0 0 0 0 0 0 0 0 0 0 0 0 0 0 0 0 0 0 0 0 0 0 0 0 0 0 0 0 0 0 0 0 0 0 0 0 0 0
0 0 0 0 0 0 0 0 0 0 0 0 0 0 0 0 0 0 0 0 0 0 0 0 0 0 0 0 0 0 0 0 0 0 0 0 0 0 0 0 0 0 0
0 0 0 0 0 0 0 0 0 0 0 0 0 0 0 0 0 0 0 0 0 0 0 0 0 0 0 0 0 0 0 0 0 0 0 0 0 0 0 0 0 0 0
0 0 0 0 0 0 0 0 0 0 0 0 0 0 0 0 0 0 0 0 0 0 0 0 0 0 0 0 0 0 0 0 0 0 0 0 0 0 0 0 0 0 0

GFSSE_con_mlcape_033.txt.gz
CAPE
248 319 923 900 724 1188 1205 1585 1664 1465 1330 1422 1306 1335 1209 1010 1009 1257 1322 1383 1438 1222 1577 1530 1499 1567 1224 1306 1163 1316 1304 1326 1523 1451 1295 1409 1419 1344 1135 925 568 450 396
193 640 1176 1011 803 1136 1168 1220 1195 1212 1161 1076 965 878 893 994 1203 1138 1244 1332 1402 1246 1268 1598 1422 1455 1109 1203 1276 1207 1226 1331 1234 1155 990 773 1121 1280 1187 825 654 635 559
250 715 1147 1079 825 1023 1026 1028 969 977 891 913 846 761 670 741 896 999 919 666 1071 1394 1138 1347 1406 1337 1129 1235 1329 1336 1293 1205 1070 1018 963 934 955 1151 1058 914 796 669 632
358 661 1039 1144 942 912 888 832 734 682 659 702 676 571 428 459 511 581 857 941 843 1021 1163 1023 1292 1375 1142 1389 1338 1305 1355 1184 1063 870 836 1072 1140 1169 1119 822 765 854 743
229 638 931 1305 995 876 840 719 637 567 436 349 252 215 110 232 333 273 588 317 373 745 1207 1016 1011 1300 1221 1376 1324 1362 1433 1351 1083 820 843 957 1081 1135 952 833 893 782 670
161 516 816 1226 903 755 470 697 510 408 307 60 0 0 0 22 35 21 237 327 194 117 293 670 897 1239 1181 1261 1494 1390 1463 1357 865 747 780 852 883 1166 1136 881 832 817 777
143 262 605 1230 1333 1185 854 706 449 154 15 0 0 0 0 0 1 0 4 67 61 46 65 145 459 1111 1077 1201 1339 1485 1241 764 447 406 433 511 785 1084 1036 910 807 818 881
96 239 557 1239 1318 1363 904 663 472 77 12 3 0 0 0 0 0 0 0 2 4 3 5 30 149 583 957 1028 980 1251 838 445 234 157 158 257 485 845 978 970 792 785 788
192 329 792 1246 1306 1246 1076 874 558 281 34 1 0 0 0 0 0 0 0 0 0 1 3 4 55 552 853 647 817 1127 615 106 0 6 130 429 716 926 874 848 963 860 850
449 628 724 1072 1277 1256 1152 982 639 354 215 0 0 0 0 0 0 0 0 0 0 0 0 0 1 223 233 251 274 112 248 0 0 0 0 120 232 440 861 857 947 961 950
618 771 852 992 1199 1063 913 860 745 400 349 32 1 0 0 0 0 0 0 0 0 0 0 0 0 0 0 0 0 0 0 0 0 0 0 0 0 32 269 430 666 655 735
456 786 998 1040 988 875 759 610 533 334 219 53 0 0 0 0 0 0 0 0 0 0 0 0 0 0 0 0 0 0 0 0 0 0 0 0 0 0 0 16 94 167 330
351 698 968 967 940 680 508 392 394 251 146 19 0 0 0 0 0 0 0 0 0 0 0 0 0 0 0 0 0 0 0 0 0 0 0 0 0 0 1 2 9 22 171
0 116 658 1056 863 635 543 320 298 209 153 25 0 0 0 0 0 0 0 0 0 0 0 0 0 0 0 0 0 0 0 0 0 0 0 0 0 1 0 0 0 0 4
0 0 0 547 877 645 537 339 272 210 129 51 0 0 0 0 0 0 0 0 0 0 0 0 0 0 0 0 0 0 0 0 0 0 0 0 0 0 0 0 0 0 0
0 0 0 0 321 769 589 366 306 186 73 13 0 0 0 0 0 0 0 0 0 0 0 0 0 0 0 0 0 0 0 0 0 0 0 0 0 0 0 0 0 0 0
0 0 0 0 0 319 540 326 264 106 57 12 0 0 0 0 0 0 0 0 0 0 0 0 0 0 0 0 0 0 0 0 0 0 0 0 0 0 0 0 0 0 0
0 0 0 0 0 0 0 0 101 77 0 0 0 0 0 0 0 0 0 0 0 0 0 0 0 0 0 0 0 0 0 0 0 0 0 0 0 0 0 0 0 0 0
0 0 0 0 0 0 0 0 0 0 0 0 0 0 0 0 0 0 0 0 0 0 0 0 0 0 0 0 0 0 0 0 0 0 0 0 0 0 0 0 0 0 0
0 0 0 0 0 0 0 0 0 0 0 0 0 0 0 0 0 0 0 0 0 0 0 0 0 0 0 0 0 0 0 0 0 0 0 0 0 0 0 0 0 0 0
0 0 0 0 0 0 0 0 0 0 0 0 0 0 0 0 0 0 0 0 0 0 0 0 0 0 0 0 0 0 0 0 0 0 0 0 0 0 0 0 0 0 0
0 0 0 0 0 0 0 0 0 0 0 0 0 0 0 0 0 0 0 0 0 0 0 0 0 0 0 0 0 0 0 0 0 0 0 0 0 0 0 0 0 0 0
0 0 0 0 0 0 0 0 0 0 0 0 0 0 0 0 0 0 0 0 0 0 0 0 0 0 0 0 0 0 0 0 0 0 0 0 0 0 0 0 0 0 0
0 0 0 0 0 0 0 0 0 0 0 0 0 0 0 0 0 0 0 0 0 0 0 0 0 0 0 0 0 0 0 0 0 0 0 0 0 0 0 0 0 0 0
0 0 0 0 0 0 0 0 0 0 0 0 0 0 0 0 0 0 0 0 0 0 0 0 0 0 0 0 0 0 0 0 0 0 0 0 0 0 0 0 0 0 0
0 0 0 0 0 0 0 0 0 0 0 0 0 0 0 0 0 0 0 0 0 0 0 0 0 0 0 0 0 0 0 0 0 0 0 0 0 0 0 0 0 0 0

GFSSE_con_mlcape_036.txt.gz
CAPE
112 143 892 1218 832 976 1170 1300 1703 1404 1308 1192 1158 1459 802 533 930 1311 1221 1407 1147 1491 1514 1458 1618 1165 1117 1000 1050 1344 1582 1695 1702 1708 1635 1523 1374 1209 952 660 487 386 176
121 374 905 804 876 855 880 1767 1052 941 1255 837 645 600 594 612 651 1041 1193 1211 1201 1223 1472 1438 1472 1054 975 987 987 1243 1320 1401 1340 1304 1154 1201 1235 1116 865 734 697 579 281
140 556 970 827 879 887 942 917 822 890 937 843 665 528 669 740 1038 921 408 681 1122 1099 1251 1314 1192 1006 1118 1228 1160 1205 1297 1239 1146 1016 797 799 1224 1164 1057 903 851 791 480
210 674 972 972 936 819 790 736 760 874 851 848 641 556 477 495 519 452 862 755 705 1017 1041 1149 1256 1063 1303 1396 1301 1357 1262 1136 993 914 872 951 1054 1177 1066 819 904 786 670
362 672 820 881 979 823 548 521 664 661 670 660 579 406 182 262 375 293 613 283 183 809 995 921 1126 1062 1336 1326 1372 1450 1386 1185 931 739 829 951 1056 1090 1016 937 844 849 589
363 686 924 1164 1105 778 512 443 674 600 483 332 84 3 5 77 85 113 370 70 140 154 368 453 767 1059 1148 1244 1317 1461 1602 1155 661 647 779 883 959 1115 1023 901 819 874 696
192 446 867 1181 1119 815 536 553 636 476 280 21 0 0 0 0 1 0 13 67 74 35 51 111 419 1148 987 1257 1408 1387 1211 659 397 446 502 641 880 1009 984 893 780 892 773
73 264 653 1249 1195 1079 702 688 639 339 95 27 9 0 0 0 0 0 0 3 5 6 4 6 139 611 841 944 959 1212 725 322 115 45 68 209 586 809 978 767 721 718 778
141 167 513 1408 1651 1604 1079 609 696 344 91 79 24 0 0 0 0 0 0 0 0 2 2 2 0 215 808 659 732 945 452 58 0 27 227 242 546 812 657 665 770 783 793
175 234 323 1300 1609 1494 1245 1018 881 571 155 95 23 0 0 0 0 0 0 0 0 0 0 2 2 212 265 147 141 220 284 0 0 0 0 53 127 464 716 715 746 871 899
408 476 622 1038 1427 1325 1219 1206 1135 806 491 84 32 16 0 0 0 0 0 0 0 0 0 0 0 1 0 0 0 0 0 0 0 0 0 0 0 32 127 196 531 556 678
356 671 936 1181 1301 1372 1349 1152 1073 718 581 199 22 0 0 0 0 0 0 0 0 0 0 0 0 0 0 0 0 0 0 0 0 0 0 0 0 0 0 0 42 175 285
0 243 956 1136 1119 1219 1230 1003 939 688 381 233 17 0 0 0 0 0 0 0 0 0 0 0 0 0 0 0 0 0 0 0 0 0 0 0 0 0 0 0 5 7 109
0 0 0 609 1140 1090 1127 855 755 571 315 177 30 0 0 0 0 0 0 0 0 0 0 0 0 0 0 0 0 0 0 0 0 0 0 0 0 0 1 1 3 5 9
0 0 0 0 385 1043 1040 858 673 532 379 167 42 8 0 0 0 0 0 0 0 0 0 0 0 0 0 0 0 0 0 0 0 0 0 0 0 0 0 0 0 0 0
0 0 0 0 0 576 870 735 616 542 372 173 52 23 5 0 0 0 0 0 0 0 0 0 0 0 0 0 0 0 0 0 0 0 0 0 0 0 0 0 0 0 0
0 0 0 0 0 0 5 273 401 390 308 189 58 15 22 7 0 0 0 0 0 0 0 0 0 0 0 0 0 0 0 0 0 0 0 0 0 0 0 0 0 0 0
0 0 0 0 0 0 0 0 0 17 20 36 11 0 0 0 0 0 0 0 0 0 0 0 0 0 0 0 0 0 0 0 0 0 0 0 0 0 0 0 0 0 0
0 0 0 0 0 0 0 0 0 0 0 0 0 0 0 0 0 0 0 0 0 0 0 0 0 0 0 0 0 0 0 0 0 0 0 0 0 0 0 0 0 0 0
0 0 0 0 0 0 0 0 0 0 0 0 0 0 0 0 0 0 0 0 0 0 0 0 0 0 0 0 0 0 0 0 0 0 0 0 0 0 0 0 0 0 0
0 0 0 0 0 0 0 0 0 0 0 0 0 0 0 0 0 0 0 0 0 0 0 0 0 0 0 0 0 0 0 0 0 0 0 0 0 0 0 0 0 0 0
0 0 0 0 0 0 0 0 0 0 0 0 0 0 0 0 0 0 0 0 0 0 0 0 0 0 0 0 0 0 0 0 0 0 0 0 0 0 0 0 0 0 0
0 0 0 0 0 0 0 0 0 0 0 0 0 0 0 0 0 0 0 0 0 0 0 0 0 0 0 0 0 0 0 0 0 0 0 0 0 0 0 0 0 0 0
0 0 0 0 0 0 0 0 0 0 0 0 0 0 0 0 0 0 0 0 0 0 0 0 0 0 0 0 0 0 0 0 0 0 0 0 0 0 0 0 0 0 0
0 0 0 0 0 0 0 0 0 0 0 0 0 0 0 0 0 0 0 0 0 0 0 0 0 0 0 0 0 0 0 0 0 0 0 0 0 0 0 0 0 0 0
0 0 0 0 0 0 0 0 0 0 0 0 0 0 0 0 0 0 0 0 0 0 0 0 0 0 0 0 0 0 0 0 0 0 0 0 0 0 0 0 0 0 0

GFSSE_con_mlcape_042.txt.gz
CAPE
114 177 810 1016 1145 1432 1135 1201 1252 814 899 1081 903 241 250 276 801 1019 959 996 1142 1051 1461 1102 1021 892 821 1258 1439 1410 1390 1421 1595 1636 1403 1155 990 922 774 557 299 97 78
57 141 845 971 878 1041 1162 1350 886 872 813 375 247 230 450 517 596 608 748 821 926 855 1048 1060 840 781 766 917 1087 1211 1431 1462 1540 1247 704 675 942 1064 1043 843 520 226 95
96 240 740 1028 585 773 765 1283 507 527 461 270 113 109 353 561 459 276 376 839 810 817 1156 788 731 660 824 857 1184 1255 1342 1256 1076 886 1004 778 962 1170 1143 1088 770 421 140
106 220 496 811 672 439 539 560 484 303 372 466 214 95 231 285 237 217 420 191 801 583 904 1024 681 1029 1026 1143 1224 1228 1215 1206 688 694 649 677 865 960 1059 987 1072 626 324
187 234 557 890 406 599 421 356 386 488 487 494 259 314 81 160 45 99 202 44 364 667 672 702 1018 888 1058 1051 1144 1055 1189 890 581 874 977 1017 920 977 1065 900 859 640 435
297 375 774 617 595 493 520 361 335 632 593 462 227 30 46 99 52 156 90 22 41 104 228 321 536 1072 952 1044 990 1068 784 662 837 713 952 705 919 756 837 725 799 716 496
258 286 640 740 866 795 539 388 349 728 628 336 32 0 13 29 2 0 0 0 0 4 0 62 336 661 855 855 945 1008 785 449 730 404 181 357 805 826 656 727 765 800 613
251 308 327 891 1171 1344 833 782 466 776 667 154 29 5 5 17 1 0 0 0 2 0 0 0 155 729 819 790 905 842 552 283 303 235 205 76 283 768 659 441 509 577 746
318 458 541 825 1188 1240 1106 865 597 727 678 194 90 23 0 1 0 0 0 0 0 0 0 0 0 466 676 767 955 812 338 72 122 167 43 6 135 674 680 423 322 485 805
615 649 741 1097 1310 1510 1342 1139 984 709 761 402 206 93 11 0 0 0 0 0 0 0 0 0 0 44 36 26 365 551 129 0 90 227 71 13 2 274 384 627 519 504 804
541 767 867 935 1210 1693 1626 1417 1276 1019 907 609 388 172 30 0 0 0 0 0 0 0 0 0 0 0 0 0 0 26 107 349 208 60 12 0 0 0 0 78 250 318 494
0 0 176 1063 1178 1425 1709 1504 1596 1436 1083 901 562 315 135 9 0 0 0 0 0 0 0 0 0 0 0 0 0 0 4 32 1 5 17 0 0 0 0 0 0 88 271
0 0 0 0 12 407 1651 1739 1754 1533 1493 1070 836 664 371 80 0 0 0 0 0 0 0 0 0 0 0 0 0 0 0 0 1 2 5 0 0 0 0 0 0 1 102
0 0 0 0 0 0 941 1375 1428 1467 1416 1359 1157 841 649 396 65 0 0 0 0 0 0 0 0 0 0 0 0 0 0 0 0 3 8 0 0 0 0 0 0 0 0
0 0 0 0 0 0 320 1076 1028 912 1088 1275 1124 1021 830 522 462 102 0 0 0 0 0 0 0 0 0 0 0 0 0 0 0 0 0 0 0 0 0 0 0 0 0
0 0 0 0 0 0 0 104 188 265 344 503 604 813 817 786 685 391 109 5 0 0 0 0 0 0 0 0 0 0 0 0 0 0 0 0 0 0 0 0 0 0 0
0 0 0 0 0 0 0 0 0 0 0 0 0 0 3 29 78 120 105 37 10 0 0 0 0 0 0 0 0 0 0 0 0 0 0 0 0 0 0 0 0 0 0
0 0 0 0 0 0 0 0 0 0 0 0 0 0 0 0 0 1 3 4 14 0 0 0 0 0 0 0 0 0 0 0 0 0 0 0 0 0 0 0 0 0 0
0 0 0 0 0 0 0 0 0 0 0 0 0 0 0 0 0 0 0 6 7 1 1 0 0 0 0 0 0 0 0 0 0 0 0 0 0 0 0 0 0 0 0
0 0 0 0 0 0 0 0 0 0 0 0 0 0 0 0 0 0 0 0 1 8 2 0 0 0 0 0 0 0 0 0 0 0 0 0 0 0 0 0 0 0 0
0 0 0 0 0 0 0 0 0 0 0 0 0 0 0 0 0 0 0 0 0 0 2 3 0 0 0 0 0 0 0 0 0 0 0 0 0 0 0 0 0 0 0
0 0 0 0 0 0 0 0 0 0 0 0 0 0 0 0 0 0 0 0 0 0 0 0 0 0 0 0 0 0 0 0 0 0 0 0 0 0 0 0 0 0 0
0 0 0 0 0 0 0 0 0 0 0 0 0 0 0 0 0 0 0 0 0 0 0 0 0 0 0 0 0 0 0 0 0 0 0 0 0 0 0 0 0 0 0
0 0 0 0 0 0 0 0 0 0 0 0 0 0 0 0 0 0 0 0 0 0 0 0 0 0 0 0 0 0 0 0 0 0 0 0 0 0 0 0 0 0 0
0 0 0 0 0 0 0 0 0 0 0 0 0 0 0 0 0 0 0 0 0 0 0 0 0 0 0 0 0 0 0 0 0 0 0 0 0 0 0 0 0 0 0
0 0 0 0 0 0 0 0 0 0 0 0 0 0 0 0 0 0 0 0 0 0 0 0 0 0 0 0 0 0 0 0 0 0 0 0 0 0 0 0 0 0 0

GFSSE_con_mlcape_045.txt.gz
CAPE
44 357 812 949 1306 1190 853 1441 823 906 981 668 270 250 347 372 913 873 922 926 1056 1208 1157 849 938 994 1156 1085 1196 1370 1232 1176 1531 1253 926 984 961 892 795 445 142 82 49
29 124 1023 1040 1111 1142 1001 1088 717 913 539 211 133 251 646 822 384 458 936 945 983 1011 1161 874 620 515 783 857 1225 1301 1412 1464 1043 581 643 617 899 1120 912 534 301 121 44
9 253 665 927 617 728 951 1051 226 223 258 116 79 135 205 459 273 556 642 653 824 1095 1168 744 815 861 570 1115 1136 1345 1296 1127 795 1035 823 937 1011 1108 988 855 552 230 117
4 105 711 702 416 507 889 451 205 85 232 251 65 120 70 211 79 316 136 589 929 839 967 1101 1082 1198 1020 1262 1321 1271 1273 696 356 725 1012 793 850 955 875 988 684 547 255
0 53 915 511 418 320 197 141 143 183 447 475 99 214 21 84 47 158 147 236 423 455 549 683 1026 1121 1047 1184 1186 1257 892 447 649 711 738 972 903 901 797 967 829 503 271
15 45 810 825 487 549 344 289 262 572 525 426 245 21 45 119 21 142 110 97 56 145 216 439 646 1033 1109 1159 1109 1057 624 436 865 244 696 808 879 808 738 689 753 583 486
27 53 235 642 846 710 687 518 412 510 632 419 50 0 9 46 2 32 28 14 21 23 56 97 357 677 1035 1002 1268 1174 656 467 754 105 1 317 645 608 570 692 792 765 508
24 30 388 593 945 1086 952 682 489 590 564 330 34 0 0 14 2 0 0 0 3 0 0 0 201 952 1039 897 1141 987 575 363 379 41 5 29 93 487 687 510 504 601 702
92 161 181 586 1130 888 1094 886 467 513 693 380 123 48 0 0 0 0 0 0 0 0 0 0 8 476 826 908 1133 950 474 127 250 88 4 163 239 736 705 542 431 494 702
471 402 228 216 505 1435 1478 1142 996 584 728 610 390 226 53 0 0 0 0 0 0 0 0 0 0 66 132 292 1022 635 277 72 126 104 25 40 3 230 428 752 682 615 646
352 538 463 284 293 1053 1400 1538 1425 1083 738 699 518 379 153 32 0 0 0 0 0 0 0 0 0 0 0 4 171 139 167 376 333 3 5 0 0 0 0 72 229 396 599
0 0 0 0 137 808 1241 1351 1347 1411 1471 1279 883 664 473 46 10 0 0 0 0 0 0 0 0 0 0 0 93 0 0 43 200 71 30 0 0 0 0 0 0 124 376
0 0 0 0 0 0 966 1534 1614 1541 1296 1337 1096 804 638 354 79 0 0 0 0 0 0 0 0 0 0 0 0 0 0 0 0 0 1 0 0 0 0 0 0 8 192
0 0 0 0 0 0 5 1390 1294 993 1147 1008 1254 1015 938 804 565 172 0 0 0 0 0 0 0 0 0 0 0 0 0 0 0 0 3 0 0 0 0 0 0 0 0
0 0 0 0 0 0 0 339 484 322 417 549 681 723 540 735 594 612 430 36 0 0 0 0 0 0 0 0 0 0 0 0 0 0 3 0 0 0 0 0 0 0 0
0 0 0 0 0 0 0 0 0 0 18 6 3 9 15 56 224 336 407 494 257 5 0 0 0 0 0 0 0 0 0 0 0 0 0 0 0 0 0 0 0 0 1
0 0 0 0 0 0 0 0 0 0 0 0 0 0 0 0 0 0 26 63 145 184 25 0 0 0 0 0 0 0 0 0 0 0 0 0 0 0 0 0 0 0 0
0 0 0 0 0 0 0 0 0 0 0 0 0 0 0 0 0 0 0 0 2 3 13 0 0 0 0 0 0 0 0 0 0 0 0 0 0 0 0 0 0 0 0
0 0 0 0 0 0 0 0 0 0 0 0 0 0 0 0 0 0 0 0 3 7 1 1 3 0 0 0 0 0 0 0 0 0 0 0 0 0 0 0 0 0 0
0 0 0 0 0 0 0 0 0 0 0 0 0 0 0 0 0 0 0 0 0 0 3 4 0 0 2 0 0 0 0 0 0 0 0 0 0 0 0 0 0 0 0
0 0 0 0 0 0 0 0 0 0 0 0 0 0 0 0 0 0 0 0 0 0 0 0 2 5 0 3 0 0 0 0 0 0 0 0 0 0 0 0 0 0 0
0 0 0 0 0 0 0 0 0 0 0 0 0 0 0 0 0 0 0 0 0 0 0 0 0 1 2 0 1 0 0 0 0 0 0 0 0 0 0 0 0 0 0
0 0 0 0 0 0 0 0 0 0 0 0 0 0 0 0 0 0 0 0 0 0 0 0 0 0 0 0 0 0 0 0 0 0 0 0 0 0 0 0 0 0 0
0 0 0 0 0 0 0 0 0 0 0 0 0 0 0 0 0 0 0 0 0 0 0 0 0 0 0 1 4 0 0 0 0 0 0 0 0 0 0 0 0 0 0
0 0 0 0 0 0 0 0 0 0 0 0 0 0 0 0 0 0 0 0 0 0 0 0 0 0 0 0 2 6 7 0 0 0 0 0 0 0 0 0 0 0 0
0 0 0 0 0 0 0 0 0 0 0 0 0 0 0 0 0 0 0 0 0 0 0 0 0 0 0 0 0 6 9 4 0 0 0 0 0 0 0 0 0 0 0

GFSSE_con_mlcape_048.txt.gz
CAPE
461 197 823 894 1633 565 893 827 1068 800 506 271 179 672 818 486 555 941 886 1009 1052 1205 889 777 860 1149 979 1120 1306 1285 1375 1352 835 840 875 898 953 798 487 204 73 20 0
269 447 925 981 1471 976 1001 831 871 555 213 78 79 218 545 440 556 785 756 821 1068 1101 737 622 339 349 674 1239 1149 1412 1478 1003 701 743 616 650 824 943 617 311 160 80 0
77 489 953 845 545 450 1144 448 216 279 116 51 45 99 71 327 181 426 592 926 855 1106 1035 1076 1278 676 948 859 1155 1164 946 811 978 654 705 638 909 908 903 556 321 190 20
169 96 591 749 409 932 755 227 75 50 219 122 108 161 13 68 71 357 290 612 848 800 899 1013 1167 1232 1193 1297 1171 1134 649 261 512 737 721 853 823 917 878 704 678 339 75
15 724 386 704 248 218 146 86 69 142 503 432 274 54 0 31 17 296 215 309 428 438 559 711 930 1114 1030 1303 1218 942 417 426 716 774 697 705 769 789 996 933 545 328 180
120 872 372 482 326 528 258 270 262 249 420 364 134 0 0 51 0 148 137 100 53 187 241 435 657 914 1115 1064 1105 870 476 611 598 310 515 868 584 750 714 695 595 502 277
247 341 88 744 532 506 483 453 342 152 340 278 12 0 0 2 0 0 15 18 24 11 83 118 439 1140 976 904 1207 963 436 493 473 35 327 502 273 549 689 752 791 589 477
0 305 144 46 344 620 689 540 255 125 222 240 18 0 0 0 0 0 0 0 0 0 0 0 170 745 1108 876 1389 937 523 328 403 95 67 168 48 426 598 550 542 686 522
0 7 412 329 392 822 714 623 295 213 563 372 123 53 0 0 0 0 0 0 0 0 0 0 4 353 702 971 1230 993 564 234 107 166 189 209 406 709 642 547 426 537 694
150 49 30 1025 999 1207 1077 974 885 497 536 571 356 191 77 0 0 0 0 0 0 0 0 0 0 2 75 335 1145 794 425 254 1 101 52 69 82 298 835 772 701 647 592
0 0 0 0 13 598 1047 1395 1097 1140 608 736 543 434 296 23 0 0 0 0 0 0 0 0 0 0 0 0 321 408 200 159 374 210 34 1 8 0 173 247 371 708 696
0 0 0 0 0 0 921 906 1011 920 989 1075 763 681 487 310 63 0 0 0 0 0 0 0 0 0 0 0 0 191 0 0 68 190 9 0 0 0 0 0 19 229 507
0 0 0 0 0 0 173 1131 963 881 821 1030 937 852 638 564 282 0 0 0 0 0 0 0 0 0 0 0 0 0 0 0 0 0 11 0 0 0 0 0 0 11 240
0 0 0 0 0 0 52 356 252 282 383 483 486 548 460 401 501 540 278 11 0 0 0 0 0 0 0 0 0 0 0 0 0 0 0 0 0 0 0 0 0 0 101
0 0 0 0 0 0 0 0 0 0 0 0 0 0 2 50 185 213 198 272 221 0 0 0 0 0 0 0 0 0 0 0 0 0 0 0 0 0 0 0 0 0 0
0 0 0 0 0 0 0 0 0 0 0 0 0 0 0 0 0 0 0 29 60 97 59 2 0 0 0 0 0 0 0 0 0 0 0 0 0 0 0 0 0 0 0
0 0 0 0 0 0 0 0 0 0 0 0 0 0 0 0 0 0 0 0 0 0 0 0 0 0 0 0 0 0 0 0 0 0 0 0 0 0 0 0 0 0 0
0 0 0 0 0 0 0 0 0 0 0 0 0 0 0 0 0 0 0 0 0 0 0 0 0 0 0 0 0 0 0 0 0 0 0 0 0 0 0 0 0 0 0
0 0 0 0 0 0 0 0 0 0 0 0 0 0 0 0 0 0 0 0 0 0 0 0 0 0 0 0 0 0 0 0 0 0 0 0 0 0 0 0 0 0 0
0 0 0 0 0 0 0 0 0 0 0 0 0 0 0 0 0 0 0 0 0 0 0 0 0 0 0 0 0 0 0 0 0 0 0 0 0 0 0 0 0 0 0
0 0 0 0 0 0 0 0 0 0 0 0 0 0 0 0 0 0 0 0 0 0 0 0 0 0 0 0 0 3 0 0 0 0 0 0 0 0 0 0 0 0 0
0 0 0 0 0 0 0 0 0 0 0 0 0 0 0 0 0 0 0 0 0 0 0 0 0 0 0 1 0 1 2 0 0 0 0 0 0 0 0 0 0 0 0
0 0 0 0 0 0 0 0 0 0 0 0 0 0 0 0 0 0 0 0 0 0 0 0 0 0 0 0 13 0 6 0 0 0 0 0 0 0 0 0 0 0 0
0 0 0 0 0 0 0 0 0 0 0 0 0 0 0 0 0 0 0 0 0 0 0 0 0 0 0 0 3 26 3 1 1 0 0 0 0 0 0 0 0 0 0
0 0 0 0 0 0 0 0 0 0 0 0 0 0 0 0 0 0 0 0 0 0 0 0 0 0 0 0 0 0 29 11 0 8 1 0 0 0 0 0 0 0 0
0 0 0 0 0 0 0 0 0 0 0 0 0 0 0 0 0 0 0 0 0 0 0 0 0 0 0 0 0 0 1 38 20 0 0 0 0 0 0 0 0 0 0